Time,TemperatureF,DewpointF,PressureIn,WindDirection,WindDirectionDegrees,WindSpeedMPH,WindSpeedGustMPH,Humidity,HourlyPrecipIn,Conditions,Clouds,dailyrainin,SoftwareType,DateUTC
2013-10-08 00:13:00,42.0,38.0,29.99,North,-999,-999.0,-999.0,87,-99.99,,,-99.99,,2013-10-08 05:13:00,
2013-10-08 00:22:00,42.0,39.0,29.99,North,-999,-999.0,-999.0,88,-99.99,,,-99.99,,2013-10-08 05:22:00,
2013-10-08 00:42:00,42.0,39.0,29.99,North,-999,-999.0,-999.0,88,-99.99,,,-99.99,,2013-10-08 05:42:00,
2013-10-08 00:53:00,42.0,39.0,29.99,North,-999,-999.0,-999.0,89,-99.99,,,-99.99,,2013-10-08 05:53:00,
2013-10-08 01:12:00,42.0,39.0,29.99,North,-999,-999.0,-999.0,89,-99.99,,,-99.99,,2013-10-08 06:12:00,
2013-10-08 01:22:00,42.0,39.0,29.99,North,-999,-999.0,-999.0,90,-99.99,,,-99.99,,2013-10-08 06:22:00,
2013-10-08 01:42:00,42.0,39.0,29.99,North,-999,-999.0,-999.0,90,-99.99,,,-99.99,,2013-10-08 06:42:00,
2013-10-08 01:52:00,42.0,40.0,29.99,North,-999,-999.0,-999.0,91,-99.99,,,-99.99,,2013-10-08 06:52:00,
2013-10-08 02:11:00,41.0,38.0,29.99,North,-999,-999.0,-999.0,90,-99.99,,,-99.99,,2013-10-08 07:11:00,
2013-10-08 02:21:00,41.0,38.0,29.99,North,-999,-999.0,-999.0,90,-99.99,,,-99.99,,2013-10-08 07:21:00,
2013-10-08 02:42:00,40.0,38.0,30.02,North,-999,-999.0,-999.0,91,-99.99,,,-99.99,,2013-10-08 07:42:00,
2013-10-08 02:52:00,41.0,39.0,30.02,North,-999,-999.0,-999.0,91,-99.99,,,-99.99,,2013-10-08 07:52:00,
2013-10-08 03:12:00,41.0,39.0,30.02,North,-999,-999.0,-999.0,91,-99.99,,,-99.99,,2013-10-08 08:12:00,
2013-10-08 03:22:00,41.0,39.0,30.02,North,-999,-999.0,-999.0,92,-99.99,,,-99.99,,2013-10-08 08:22:00,
2013-10-08 03:42:00,41.0,39.0,30.02,North,-999,-999.0,-999.0,92,-99.99,,,-99.99,,2013-10-08 08:42:00,
2013-10-08 03:52:00,41.0,39.0,30.02,North,-999,-999.0,-999.0,92,-99.99,,,-99.99,,2013-10-08 08:52:00,
2013-10-08 04:12:00,41.0,39.0,30.02,North,-999,-999.0,-999.0,93,-99.99,,,-99.99,,2013-10-08 09:12:00,
2013-10-08 04:22:00,41.0,39.0,30.02,North,-999,-999.0,-999.0,93,-99.99,,,-99.99,,2013-10-08 09:22:00,
2013-10-08 04:43:00,41.0,39.0,30.02,North,-999,-999.0,-999.0,93,-99.99,,,-99.99,,2013-10-08 09:43:00,
2013-10-08 04:53:00,41.0,39.0,30.02,North,-999,-999.0,-999.0,93,-99.99,,,-99.99,,2013-10-08 09:53:00,
2013-10-08 05:12:00,41.0,39.0,30.02,North,-999,-999.0,-999.0,93,-99.99,,,-99.99,,2013-10-08 10:12:00,
2013-10-08 05:23:00,41.0,39.0,30.02,North,-999,-999.0,-999.0,93,-99.99,,,-99.99,,2013-10-08 10:23:00,
2013-10-08 05:33:00,41.0,39.0,30.02,North,-999,-999.0,-999.0,93,-99.99,,,-99.99,,2013-10-08 10:33:00,
2013-10-08 05:42:00,41.0,39.0,30.02,North,-999,-999.0,-999.0,93,-99.99,,,-99.99,,2013-10-08 10:42:00,
2013-10-08 05:53:00,40.0,38.0,30.02,North,-999,-999.0,-999.0,93,-99.99,,,-99.99,,2013-10-08 10:53:00,
2013-10-08 06:12:00,40.0,38.0,30.02,North,-999,-999.0,-999.0,93,-99.99,,,-99.99,,2013-10-08 11:12:00,
2013-10-08 06:22:00,40.0,38.0,30.02,North,-999,-999.0,-999.0,93,-99.99,,,-99.99,,2013-10-08 11:22:00,
2013-10-08 06:42:00,40.0,38.0,30.02,North,-999,-999.0,-999.0,93,-99.99,,,-99.99,,2013-10-08 11:42:00,
2013-10-08 06:52:00,40.0,38.0,30.02,North,-999,-999.0,-999.0,93,-99.99,,,-99.99,,2013-10-08 11:52:00,
2013-10-08 07:12:00,40.0,38.0,30.02,North,-999,-999.0,-999.0,94,-99.99,,,-99.99,,2013-10-08 12:12:00,
2013-10-08 07:22:00,40.0,38.0,30.02,North,-999,-999.0,-999.0,94,-99.99,,,-99.99,,2013-10-08 12:22:00,
2013-10-08 07:42:00,40.0,38.0,30.02,North,-999,-999.0,-999.0,94,-99.99,,,-99.99,,2013-10-08 12:42:00,
2013-10-08 07:52:00,40.0,38.0,30.02,North,-999,-999.0,-999.0,94,-99.99,,,-99.99,,2013-10-08 12:52:00,
2013-10-08 08:12:00,44.0,43.0,30.05,North,-999,-999.0,-999.0,96,-99.99,,,-99.99,,2013-10-08 13:12:00,
2013-10-08 08:22:00,46.0,45.0,30.05,North,-999,-999.0,-999.0,96,-99.99,,,-99.99,,2013-10-08 13:22:00,
2013-10-08 08:42:00,47.0,45.0,30.02,North,-999,-999.0,-999.0,94,-99.99,,,-99.99,,2013-10-08 13:42:00,
2013-10-08 08:52:00,48.0,46.0,30.02,North,-999,-999.0,-999.0,93,-99.99,,,-99.99,,2013-10-08 13:52:00,
2013-10-08 09:11:00,51.0,48.0,30.02,North,-999,-999.0,-999.0,88,-99.99,,,-99.99,,2013-10-08 14:11:00,
2013-10-08 09:22:00,52.0,47.0,30.02,North,-999,-999.0,-999.0,84,-99.99,,,-99.99,,2013-10-08 14:22:00,
2013-10-08 09:42:00,53.0,48.0,30.02,North,-999,-999.0,-999.0,82,-99.99,,,-99.99,,2013-10-08 14:42:00,
2013-10-08 09:52:00,55.0,48.0,30.02,North,-999,-999.0,-999.0,77,-99.99,,,-99.99,,2013-10-08 14:52:00,
2013-10-08 10:11:00,56.0,48.0,30.02,North,-999,-999.0,-999.0,75,-99.99,,,-99.99,,2013-10-08 15:11:00,
2013-10-08 10:22:00,56.0,48.0,30.02,North,-999,-999.0,-999.0,75,-99.99,,,-99.99,,2013-10-08 15:22:00,
2013-10-08 10:44:00,58.0,49.0,30.02,North,-999,-999.0,-999.0,71,-99.99,,,-99.99,,2013-10-08 15:44:00,
2013-10-08 10:53:00,59.0,50.0,30.02,North,-999,-999.0,-999.0,71,-99.99,,,-99.99,,2013-10-08 15:53:00,
2013-10-08 11:13:00,60.0,50.0,30.02,North,-999,-999.0,-999.0,69,-99.99,,,-99.99,,2013-10-08 16:13:00,
2013-10-08 11:23:00,60.0,49.0,30.02,North,-999,-999.0,-999.0,68,-99.99,,,-99.99,,2013-10-08 16:23:00,
2013-10-08 11:42:00,62.0,50.0,30.02,North,-999,-999.0,-999.0,65,-99.99,,,-99.99,,2013-10-08 16:42:00,
2013-10-08 11:53:00,63.0,50.0,29.99,North,-999,-999.0,-999.0,63,-99.99,,,-99.99,,2013-10-08 16:53:00,
2013-10-08 12:12:00,64.0,51.0,29.99,North,-999,-999.0,-999.0,63,-99.99,,,-99.99,,2013-10-08 17:12:00,
2013-10-08 12:23:00,64.0,51.0,29.99,North,-999,-999.0,-999.0,62,-99.99,,,-99.99,,2013-10-08 17:23:00,
2013-10-08 12:42:00,66.0,51.0,29.99,North,-999,-999.0,-999.0,59,-99.99,,,-99.99,,2013-10-08 17:42:00,
2013-10-08 12:52:00,67.0,50.0,29.99,North,-999,-999.0,-999.0,55,-99.99,,,-99.99,,2013-10-08 17:52:00,
2013-10-08 13:11:00,68.0,52.0,29.99,North,-999,-999.0,-999.0,56,-99.99,,,-99.99,,2013-10-08 18:11:00,
2013-10-08 13:22:00,68.0,51.0,29.99,North,-999,-999.0,-999.0,55,-99.99,,,-99.99,,2013-10-08 18:22:00,
2013-10-08 13:42:00,69.0,50.0,29.99,North,-999,-999.0,-999.0,51,-99.99,,,-99.99,,2013-10-08 18:42:00,
2013-10-08 13:52:00,70.0,49.0,29.96,North,-999,-999.0,-999.0,48,-99.99,,,-99.99,,2013-10-08 18:52:00,
2013-10-08 14:11:00,71.0,50.0,29.96,North,-999,-999.0,-999.0,48,-99.99,,,-99.99,,2013-10-08 19:11:00,
2013-10-08 14:21:00,71.0,49.0,29.96,North,-999,-999.0,-999.0,45,-99.99,,,-99.99,,2013-10-08 19:21:00,
2013-10-08 14:42:00,71.0,49.0,29.96,North,-999,-999.0,-999.0,45,-99.99,,,-99.99,,2013-10-08 19:42:00,
2013-10-08 14:52:00,73.0,51.0,29.96,North,-999,-999.0,-999.0,46,-99.99,,,-99.99,,2013-10-08 19:52:00,
2013-10-08 15:12:00,73.0,49.0,29.96,North,-999,-999.0,-999.0,43,-99.99,,,-99.99,,2013-10-08 20:12:00,
2013-10-08 15:22:00,74.0,49.0,29.93,North,-999,-999.0,-999.0,41,-99.99,,,-99.99,,2013-10-08 20:22:00,
2013-10-08 15:42:00,74.0,50.0,29.93,North,-999,-999.0,-999.0,43,-99.99,,,-99.99,,2013-10-08 20:42:00,
2013-10-08 15:52:00,75.0,48.0,29.93,North,-999,-999.0,-999.0,38,-99.99,,,-99.99,,2013-10-08 20:52:00,
2013-10-08 16:12:00,75.0,47.0,29.93,North,-999,-999.0,-999.0,37,-99.99,,,-99.99,,2013-10-08 21:12:00,
2013-10-08 16:22:00,75.0,46.0,29.93,North,-999,-999.0,-999.0,36,-99.99,,,-99.99,,2013-10-08 21:22:00,
2013-10-08 16:44:00,74.0,46.0,29.93,North,-999,-999.0,-999.0,37,-99.99,,,-99.99,,2013-10-08 21:44:00,
2013-10-08 16:54:00,74.0,46.0,29.93,North,-999,-999.0,-999.0,37,-99.99,,,-99.99,,2013-10-08 21:54:00,
2013-10-08 17:13:00,74.0,47.0,29.93,North,-999,-999.0,-999.0,38,-99.99,,,-99.99,,2013-10-08 22:13:00,
2013-10-08 17:24:00,74.0,46.0,29.93,North,-999,-999.0,-999.0,37,-99.99,,,-99.99,,2013-10-08 22:24:00,
2013-10-08 17:46:00,72.0,46.0,29.90,North,-999,-999.0,-999.0,39,-99.99,,,-99.99,,2013-10-08 22:46:00,
2013-10-08 17:55:00,72.0,46.0,29.90,North,-999,-999.0,-999.0,39,-99.99,,,-99.99,,2013-10-08 22:55:00,
2013-10-08 18:12:00,70.0,46.0,29.93,North,-999,-999.0,-999.0,42,-99.99,,,-99.99,,2013-10-08 23:12:00,
2013-10-08 18:23:00,70.0,46.0,29.93,North,-999,-999.0,-999.0,42,-99.99,,,-99.99,,2013-10-08 23:23:00,
2013-10-08 18:42:00,68.0,45.0,29.93,North,-999,-999.0,-999.0,43,-99.99,,,-99.99,,2013-10-08 23:42:00,
2013-10-08 18:52:00,67.0,45.0,29.93,North,-999,-999.0,-999.0,45,-99.99,,,-99.99,,2013-10-08 23:52:00,
2013-10-08 19:22:00,64.0,43.0,29.93,North,-999,-999.0,-999.0,47,-99.99,,,-99.99,,2013-10-09 00:22:00,
2013-10-08 19:43:00,64.0,44.0,29.93,North,-999,-999.0,-999.0,48,-99.99,,,-99.99,,2013-10-09 00:43:00,
2013-10-08 19:52:00,63.0,44.0,29.93,North,-999,-999.0,-999.0,49,-99.99,,,-99.99,,2013-10-09 00:52:00,
2013-10-08 20:12:00,62.0,43.0,29.93,North,-999,-999.0,-999.0,50,-99.99,,,-99.99,,2013-10-09 01:12:00,
2013-10-08 20:22:00,62.0,43.0,29.93,North,-999,-999.0,-999.0,50,-99.99,,,-99.99,,2013-10-09 01:22:00,
2013-10-08 20:43:00,62.0,44.0,29.93,North,-999,-999.0,-999.0,51,-99.99,,,-99.99,,2013-10-09 01:43:00,
2013-10-08 20:52:00,61.0,43.0,29.93,North,-999,-999.0,-999.0,51,-99.99,,,-99.99,,2013-10-09 01:52:00,
2013-10-08 21:12:00,61.0,43.0,29.93,North,-999,-999.0,-999.0,51,-99.99,,,-99.99,,2013-10-09 02:12:00,
2013-10-08 21:23:00,61.0,43.0,29.96,North,-999,-999.0,-999.0,52,-99.99,,,-99.99,,2013-10-09 02:23:00,
2013-10-08 21:42:00,61.0,43.0,29.96,North,-999,-999.0,-999.0,52,-99.99,,,-99.99,,2013-10-09 02:42:00,
2013-10-08 21:52:00,61.0,44.0,29.96,North,-999,-999.0,-999.0,53,-99.99,,,-99.99,,2013-10-09 02:52:00,
2013-10-08 22:11:00,61.0,43.0,29.96,North,-999,-999.0,-999.0,52,-99.99,,,-99.99,,2013-10-09 03:11:00,
2013-10-08 22:23:00,61.0,44.0,29.96,North,-999,-999.0,-999.0,53,-99.99,,,-99.99,,2013-10-09 03:23:00,
2013-10-08 22:44:00,60.0,43.0,29.96,North,-999,-999.0,-999.0,53,-99.99,,,-99.99,,2013-10-09 03:44:00,
2013-10-08 22:54:00,60.0,43.0,29.96,North,-999,-999.0,-999.0,54,-99.99,,,-99.99,,2013-10-09 03:54:00,
2013-10-08 23:05:00,60.0,43.0,29.96,North,-999,-999.0,-999.0,54,-99.99,,,-99.99,,2013-10-09 04:05:00,
2013-10-08 23:14:00,60.0,43.0,29.96,North,-999,-999.0,-999.0,54,-99.99,,,-99.99,,2013-10-09 04:14:00,
2013-10-08 23:24:00,59.0,42.0,29.99,North,-999,-999.0,-999.0,54,-99.99,,,-99.99,,2013-10-09 04:24:00,
2013-10-08 23:44:00,59.0,43.0,29.99,North,-999,-999.0,-999.0,55,-99.99,,,-99.99,,2013-10-09 04:44:00,
2013-10-08 23:54:00,58.0,42.0,29.99,North,-999,-999.0,-999.0,55,-99.99,,,-99.99,,2013-10-09 04:54:00,